Location: Saint-Maurice-d�Ard�che
(44.5216°N, 4.4002°E)
Time: 15:47:40
(UTC+00:00)

Nadezhda 1 Rocket - Pass Details

Date: 30 March 2020
Orbit: 940 x 1006 km, 83.0° (Epoch: 27 May)

Event Time Altitude Azimuth Distance (km) Brightness Sun altitude
Exits shadow 20:29:50 36° 176° (S) 1,535 4.7 -24.4°
Maximum altitude 20:32:39 79° 95° (E) 1,030 3.9 -24.8°
Drops below altitude 10° 20:39:03 10° 11° (N) 2,784 6.7 -25.8°
Sets 20:41:35 0° 10° (N) 3,732 7.4 -26.1°
